N811LM KWWR-KMSL

Flight info

Callsign N811LM
Flight time N/A
Altitude 25000
Route CRUSR J14 LIT J66 BEATS
Aircraft PC12/L-SDFGRWY/S

Departure

Time N/A
Airport West Woodward Airport (KWWR)

Arrival

Time 2026-05-03 21:24
Airport Northwest Alabama Regional Airport (KMSL)
Time Latitude Longitude Altitude Speed Heading
2026-05-03 20:15 35.01020 -94.61506 25079 ft 333 kts 92°
2026-05-03 20:15 35.00822 -94.58672 25079 ft 333 kts 92°
2026-05-03 20:15 35.00625 -94.55873 25080 ft 333 kts 92°
2026-05-03 20:15 35.00425 -94.53070 25079 ft 333 kts 92°
2026-05-03 20:16 35.00222 -94.50241 25078 ft 333 kts 92°
2026-05-03 20:16 35.00020 -94.47424 25077 ft 333 kts 92°
2026-05-03 20:16 34.99817 -94.44616 25075 ft 333 kts 92°
2026-05-03 20:16 34.99615 -94.41830 25074 ft 333 kts 92°
2026-05-03 20:17 34.99409 -94.38996 25073 ft 333 kts 92°
2026-05-03 20:17 34.99204 -94.36192 25072 ft 333 kts 92°
2026-05-03 20:17 34.99000 -94.33387 25063 ft 333 kts 93°
2026-05-03 20:17 34.98796 -94.30598 25059 ft 332 kts 93°
2026-05-03 20:18 34.98588 -94.27788 25060 ft 332 kts 93°
2026-05-03 20:18 34.98380 -94.24978 25062 ft 331 kts 93°
2026-05-03 20:18 34.98175 -94.22213 25064 ft 331 kts 93°
2026-05-03 20:18 34.97964 -94.19394 25066 ft 330 kts 93°
2026-05-03 20:19 34.97757 -94.16608 25068 ft 330 kts 93°
2026-05-03 20:19 34.97549 -94.13829 25070 ft 330 kts 93°
2026-05-03 20:19 34.97342 -94.11070 25072 ft 329 kts 93°
2026-05-03 20:19 34.97133 -94.08285 25074 ft 329 kts 93°
2026-05-03 20:20 34.96921 -94.05489 25076 ft 329 kts 92°
2026-05-03 20:20 34.96710 -94.02703 25077 ft 329 kts 92°
2026-05-03 20:20 34.96501 -93.99945 25078 ft 329 kts 92°
2026-05-03 20:20 34.96289 -93.97173 25079 ft 329 kts 92°
2026-05-03 20:21 34.96077 -93.94388 25079 ft 329 kts 92°
2026-05-03 20:21 34.95864 -93.91625 25080 ft 328 kts 92°
2026-05-03 20:21 34.95654 -93.88886 25081 ft 328 kts 92°
2026-05-03 20:21 34.95439 -93.86100 25082 ft 328 kts 92°
2026-05-03 20:22 34.95227 -93.83351 25083 ft 328 kts 92°
2026-05-03 20:22 34.95009 -93.80557 25084 ft 328 kts 92°
2026-05-03 20:22 34.94796 -93.77814 25085 ft 328 kts 92°
2026-05-03 20:22 34.94581 -93.75050 25086 ft 328 kts 92°
2026-05-03 20:23 34.94363 -93.72279 25087 ft 328 kts 92°
2026-05-03 20:23 34.94146 -93.69511 25088 ft 327 kts 92°
2026-05-03 20:23 34.93930 -93.66773 25088 ft 327 kts 92°
2026-05-03 20:23 34.93712 -93.64008 25088 ft 327 kts 92°
2026-05-03 20:24 34.93493 -93.61243 25089 ft 327 kts 92°
2026-05-03 20:24 34.93275 -93.58495 25089 ft 327 kts 92°
2026-05-03 20:24 34.93054 -93.55723 25089 ft 327 kts 92°
2026-05-03 20:24 34.92833 -93.52953 25089 ft 327 kts 92°
2026-05-03 20:25 34.92613 -93.50215 25089 ft 327 kts 92°
2026-05-03 20:25 34.92391 -93.47455 25090 ft 326 kts 92°
2026-05-03 20:25 34.92170 -93.44701 25090 ft 326 kts 92°
2026-05-03 20:25 34.91949 -93.41975 25090 ft 326 kts 92°
2026-05-03 20:26 34.91727 -93.39230 25090 ft 326 kts 92°
2026-05-03 20:26 34.91502 -93.36462 25091 ft 326 kts 92°
2026-05-03 20:26 34.91280 -93.33729 25084 ft 326 kts 93°
2026-05-03 20:26 34.91055 -93.30981 25082 ft 325 kts 93°
2026-05-03 20:27 34.90831 -93.28249 25081 ft 325 kts 93°
2026-05-03 20:27 34.90604 -93.25486 25082 ft 324 kts 93°
2026-05-03 20:27 34.90380 -93.22783 25082 ft 324 kts 93°
2026-05-03 20:27 34.90156 -93.20069 25082 ft 324 kts 93°
2026-05-03 20:28 34.89929 -93.17331 25081 ft 323 kts 93°
2026-05-03 20:28 34.89702 -93.14602 25078 ft 323 kts 93°
2026-05-03 20:28 34.89478 -93.11907 25079 ft 322 kts 93°
2026-05-03 20:28 34.89249 -93.09171 25079 ft 322 kts 92°
2026-05-03 20:29 34.89023 -93.06489 25080 ft 322 kts 93°
2026-05-03 20:29 34.88796 -93.03774 25082 ft 321 kts 93°
2026-05-03 20:29 34.88568 -93.01051 25083 ft 321 kts 93°
2026-05-03 20:29 34.88343 -92.98382 25084 ft 321 kts 93°
2026-05-03 20:30 34.88113 -92.95664 25086 ft 321 kts 93°
2026-05-03 20:30 34.87885 -92.92964 25087 ft 321 kts 93°
2026-05-03 20:30 34.87656 -92.90267 25089 ft 321 kts 93°
2026-05-03 20:30 34.87423 -92.87544 25091 ft 321 kts 93°
2026-05-03 20:31 34.87192 -92.84865 25092 ft 321 kts 93°
2026-05-03 20:31 34.86960 -92.82153 25093 ft 321 kts 93°
2026-05-03 20:31 34.86724 -92.79421 25093 ft 321 kts 93°
2026-05-03 20:31 34.86493 -92.76744 25094 ft 321 kts 93°
2026-05-03 20:32 34.86258 -92.74034 25095 ft 321 kts 93°
2026-05-03 20:32 34.86022 -92.71304 25095 ft 322 kts 93°
2026-05-03 20:32 34.85786 -92.68603 25096 ft 322 kts 93°
2026-05-03 20:32 34.85549 -92.65880 25097 ft 322 kts 93°
2026-05-03 20:33 34.85316 -92.63217 25097 ft 322 kts 93°
2026-05-03 20:33 34.85078 -92.60505 25099 ft 322 kts 93°
2026-05-03 20:33 34.84837 -92.57756 25102 ft 322 kts 93°
2026-05-03 20:33 34.84601 -92.55084 25104 ft 322 kts 93°
2026-05-03 20:34 34.84359 -92.52340 25106 ft 322 kts 93°
2026-05-03 20:34 34.84120 -92.49641 25108 ft 322 kts 93°
2026-05-03 20:34 34.83879 -92.46931 25110 ft 322 kts 93°
2026-05-03 20:34 34.83637 -92.44215 25112 ft 322 kts 93°
2026-05-03 20:35 34.83398 -92.41526 25114 ft 322 kts 93°
2026-05-03 20:35 34.83153 -92.38779 25116 ft 322 kts 93°
2026-05-03 20:35 34.82912 -92.36089 25117 ft 322 kts 93°
2026-05-03 20:35 34.82668 -92.33367 25110 ft 322 kts 94°
2026-05-03 20:36 34.82422 -92.30650 25108 ft 322 kts 94°
2026-05-03 20:36 34.82178 -92.27950 25108 ft 322 kts 94°
2026-05-03 20:36 34.81933 -92.25249 25109 ft 322 kts 94°
2026-05-03 20:36 34.81689 -92.22570 25109 ft 321 kts 94°
2026-05-03 20:37 34.81440 -92.19842 25109 ft 321 kts 94°
2026-05-03 20:37 34.81195 -92.17165 25110 ft 321 kts 94°
2026-05-03 20:37 34.81146 -92.14465 25115 ft 318 kts 82°
2026-05-03 20:37 34.81363 -92.11784 25111 ft 317 kts 79°
2026-05-03 20:38 34.81635 -92.09109 25110 ft 317 kts 78°
2026-05-03 20:38 34.81913 -92.06461 25110 ft 317 kts 78°
2026-05-03 20:38 34.82193 -92.03789 25109 ft 317 kts 78°
2026-05-03 20:38 34.82468 -92.01131 25109 ft 317 kts 78°
2026-05-03 20:39 34.82742 -91.98467 25109 ft 317 kts 78°
2026-05-03 20:39 34.83012 -91.95823 25109 ft 317 kts 78°
2026-05-03 20:39 34.83283 -91.93146 25109 ft 317 kts 78°
2026-05-03 20:39 34.83554 -91.90482 25109 ft 317 kts 78°
2026-05-03 20:40 34.83825 -91.87830 25112 ft 317 kts 78°
2026-05-03 20:40 34.84092 -91.85185 25115 ft 317 kts 78°
2026-05-03 20:40 34.84364 -91.82486 25119 ft 317 kts 78°
2026-05-03 20:40 34.84631 -91.79840 25122 ft 317 kts 78°
2026-05-03 20:41 34.84900 -91.77167 25125 ft 317 kts 78°
2026-05-03 20:41 34.85165 -91.74521 25128 ft 317 kts 78°
2026-05-03 20:41 34.85433 -91.71852 25132 ft 317 kts 78°
2026-05-03 20:41 34.85700 -91.69174 25135 ft 317 kts 78°
2026-05-03 20:42 34.85964 -91.66518 25138 ft 317 kts 78°
2026-05-03 20:42 34.86229 -91.63860 25139 ft 317 kts 78°
2026-05-03 20:42 34.86492 -91.61201 25139 ft 317 kts 78°
2026-05-03 20:42 34.86757 -91.58526 25139 ft 318 kts 78°
2026-05-03 20:43 34.87022 -91.55849 25140 ft 318 kts 78°
2026-05-03 20:43 34.87286 -91.53177 25140 ft 318 kts 78°
2026-05-03 20:43 34.87548 -91.50501 25140 ft 318 kts 78°
2026-05-03 20:43 34.87811 -91.47820 25140 ft 318 kts 78°
2026-05-03 20:44 34.88068 -91.45174 25140 ft 318 kts 78°
2026-05-03 20:44 34.88330 -91.42492 25140 ft 318 kts 78°
2026-05-03 20:44 34.88592 -91.39797 25137 ft 318 kts 78°
2026-05-03 20:44 34.88851 -91.37141 25135 ft 319 kts 78°
2026-05-03 20:45 34.89104 -91.34536 25129 ft 319 kts 79°
2026-05-03 20:45 34.89369 -91.31815 25120 ft 319 kts 79°
2026-05-03 20:45 34.89627 -91.29137 25116 ft 319 kts 79°
2026-05-03 20:45 34.89886 -91.26447 25113 ft 318 kts 79°
2026-05-03 20:46 34.90140 -91.23792 25111 ft 318 kts 79°
2026-05-03 20:46 34.90399 -91.21091 25108 ft 319 kts 78°
2026-05-03 20:46 34.90653 -91.18430 25106 ft 319 kts 78°
2026-05-03 20:46 34.90907 -91.15741 25106 ft 319 kts 78°
2026-05-03 20:47 34.91165 -91.13036 25106 ft 319 kts 78°
2026-05-03 20:47 34.91419 -91.10355 25106 ft 319 kts 78°
2026-05-03 20:47 34.91673 -91.07665 25106 ft 319 kts 78°
2026-05-03 20:47 34.91927 -91.04990 25106 ft 320 kts 78°
2026-05-03 20:48 34.92182 -91.02288 25107 ft 320 kts 78°
2026-05-03 20:48 34.92433 -90.99616 25107 ft 320 kts 78°
2026-05-03 20:48 34.92686 -90.96918 25107 ft 321 kts 78°
2026-05-03 20:48 34.92942 -90.94201 25107 ft 321 kts 78°
2026-05-03 20:49 34.93194 -90.91518 25108 ft 321 kts 78°
2026-05-03 20:49 34.93446 -90.88813 25108 ft 321 kts 78°
2026-05-03 20:49 34.93700 -90.86103 25108 ft 322 kts 78°
2026-05-03 20:49 34.93950 -90.83395 25109 ft 322 kts 78°
2026-05-03 20:50 34.94201 -90.80674 25109 ft 322 kts 78°
2026-05-03 20:50 34.94449 -90.77975 25109 ft 323 kts 78°
2026-05-03 20:50 34.94701 -90.75217 25110 ft 323 kts 78°
2026-05-03 20:50 34.94949 -90.72510 25110 ft 323 kts 78°
2026-05-03 20:51 34.95203 -90.69770 25111 ft 324 kts 78°
2026-05-03 20:51 34.95450 -90.67056 25113 ft 324 kts 78°
2026-05-03 20:51 34.95697 -90.64335 25116 ft 324 kts 78°
2026-05-03 20:51 34.95946 -90.61595 25118 ft 324 kts 78°
2026-05-03 20:52 34.96195 -90.58856 25120 ft 324 kts 78°
2026-05-03 20:52 34.96440 -90.56142 25123 ft 325 kts 78°
2026-05-03 20:52 34.96688 -90.53394 25125 ft 325 kts 78°
2026-05-03 20:52 34.96934 -90.50667 25128 ft 325 kts 78°
2026-05-03 20:53 34.97179 -90.47926 25130 ft 326 kts 78°
2026-05-03 20:53 34.97423 -90.45181 25131 ft 326 kts 78°
2026-05-03 20:53 34.97670 -90.42417 25132 ft 326 kts 78°
2026-05-03 20:53 34.97914 -90.39696 25132 ft 326 kts 78°
2026-05-03 20:54 34.98161 -90.36921 25133 ft 327 kts 78°
2026-05-03 20:54 34.98645 -90.31427 25122 ft 327 kts 79°
2026-05-03 20:54 34.98889 -90.28655 25122 ft 327 kts 79°
2026-05-03 20:55 34.99131 -90.25912 25122 ft 326 kts 79°
2026-05-03 20:55 34.99370 -90.23178 25122 ft 326 kts 79°
2026-05-03 20:55 34.99612 -90.20403 25124 ft 326 kts 79°
2026-05-03 20:55 34.99852 -90.17661 25127 ft 326 kts 79°
2026-05-03 20:56 35.00091 -90.14914 25129 ft 327 kts 79°
2026-05-03 20:56 35.00330 -90.12157 25132 ft 327 kts 79°
2026-05-03 20:56 35.00570 -90.09380 25134 ft 327 kts 79°
2026-05-03 20:56 35.00805 -90.06663 25137 ft 327 kts 79°
2026-05-03 20:57 35.01042 -90.03893 25139 ft 327 kts 79°
2026-05-03 20:57 35.01279 -90.01112 25141 ft 328 kts 79°
2026-05-03 20:57 35.01392 -89.98371 25144 ft 331 kts 91°
2026-05-03 20:57 35.01125 -89.95548 25145 ft 332 kts 97°
2026-05-03 20:58 35.00741 -89.92777 25145 ft 332 kts 99°
2026-05-03 20:58 35.00326 -89.89998 25145 ft 333 kts 99°
2026-05-03 20:58 34.99918 -89.87252 25145 ft 333 kts 99°
2026-05-03 20:58 34.99508 -89.84471 25146 ft 333 kts 98°
2026-05-03 20:59 34.99099 -89.81698 25146 ft 333 kts 98°
2026-05-03 20:59 34.98688 -89.78903 25146 ft 332 kts 98°
2026-05-03 20:59 34.98283 -89.76131 25146 ft 332 kts 98°
2026-05-03 20:59 34.97883 -89.73393 25146 ft 332 kts 98°
2026-05-03 21:00 34.97473 -89.70601 25144 ft 332 kts 98°
2026-05-03 21:00 34.97205 -89.68778 25143 ft 332 kts 98°
2026-05-03 21:00 34.96657 -89.65062 25142 ft 332 kts 98°
2026-05-03 21:00 34.96249 -89.62289 25140 ft 332 kts 98°
2026-05-03 21:01 34.95839 -89.59528 25139 ft 332 kts 98°
2026-05-03 21:01 34.95433 -89.56780 25139 ft 332 kts 98°
2026-05-03 21:01 34.95020 -89.53983 25138 ft 332 kts 98°
2026-05-03 21:01 34.94608 -89.51224 25138 ft 331 kts 98°
2026-05-03 21:02 34.94197 -89.48472 25137 ft 331 kts 97°
2026-05-03 21:02 34.93787 -89.45719 25136 ft 331 kts 97°
2026-05-03 21:02 34.93375 -89.42951 25134 ft 331 kts 97°
2026-05-03 21:02 34.92966 -89.40228 25133 ft 331 kts 97°
2026-05-03 21:03 34.92550 -89.37444 25132 ft 331 kts 97°
2026-05-03 21:03 34.92137 -89.34689 25129 ft 330 kts 98°
2026-05-03 21:03 34.91732 -89.31986 25118 ft 330 kts 98°
2026-05-03 21:03 34.91320 -89.29251 25115 ft 329 kts 98°
2026-05-03 21:04 34.90905 -89.26505 25114 ft 329 kts 98°
2026-05-03 21:04 34.90492 -89.23774 25115 ft 328 kts 98°
2026-05-03 21:04 34.90083 -89.21074 25117 ft 328 kts 98°
2026-05-03 21:04 34.89669 -89.18340 25120 ft 327 kts 98°
2026-05-03 21:05 34.89256 -89.15614 25122 ft 327 kts 97°
2026-05-03 21:05 34.88840 -89.12872 24917 ft 334 kts 98°
2026-05-03 21:05 34.88422 -89.10146 24665 ft 330 kts 98°
2026-05-03 21:05 34.87998 -89.07369 24403 ft 325 kts 98°
2026-05-03 21:06 34.87589 -89.04688 24147 ft 320 kts 98°
2026-05-03 21:06 34.87186 -89.02067 23891 ft 314 kts 98°
2026-05-03 21:06 34.86793 -88.99488 23636 ft 309 kts 98°
2026-05-03 21:06 34.86407 -88.96958 23383 ft 305 kts 98°
2026-05-03 21:07 34.86019 -88.94423 23127 ft 301 kts 98°
2026-05-03 21:07 34.85639 -88.91943 22875 ft 298 kts 98°
2026-05-03 21:07 34.85257 -88.89478 22624 ft 296 kts 98°
2026-05-03 21:07 34.84876 -88.87010 22370 ft 294 kts 98°
2026-05-03 21:08 34.84506 -88.84609 22123 ft 292 kts 98°
2026-05-03 21:08 34.84131 -88.82179 21872 ft 291 kts 98°
2026-05-03 21:08 34.83758 -88.79776 21622 ft 289 kts 98°
2026-05-03 21:08 34.83387 -88.77380 21373 ft 288 kts 98°
2026-05-03 21:09 34.83012 -88.74975 21122 ft 287 kts 98°
2026-05-03 21:09 34.82641 -88.72588 20873 ft 286 kts 98°
2026-05-03 21:09 34.82273 -88.70235 20627 ft 285 kts 98°
2026-05-03 21:09 34.81903 -88.67847 20377 ft 284 kts 98°
2026-05-03 21:10 34.81537 -88.65501 20131 ft 284 kts 98°
2026-05-03 21:10 34.81165 -88.63136 19883 ft 283 kts 98°
2026-05-03 21:10 34.80803 -88.60816 19639 ft 282 kts 98°
2026-05-03 21:10 34.80430 -88.58446 19390 ft 282 kts 98°
2026-05-03 21:11 34.80066 -88.56128 19146 ft 281 kts 98°
2026-05-03 21:11 34.79699 -88.53795 18900 ft 280 kts 98°
2026-05-03 21:11 34.79334 -88.51466 18655 ft 280 kts 98°
2026-05-03 21:11 34.78971 -88.49161 18411 ft 279 kts 98°
2026-05-03 21:12 34.78605 -88.46842 18167 ft 279 kts 98°
2026-05-03 21:12 34.78237 -88.44516 17920 ft 278 kts 99°
2026-05-03 21:12 34.77878 -88.42239 17680 ft 278 kts 99°
2026-05-03 21:12 34.77513 -88.39938 17436 ft 277 kts 99°
2026-05-03 21:13 34.77148 -88.37640 17192 ft 277 kts 99°
2026-05-03 21:13 34.76779 -88.35322 16946 ft 276 kts 99°
2026-05-03 21:13 34.76428 -88.33104 16700 ft 275 kts 99°
2026-05-03 21:13 34.76065 -88.30828 16411 ft 273 kts 99°
2026-05-03 21:14 34.75703 -88.28574 15912 ft 270 kts 99°
2026-05-03 21:14 34.75346 -88.26350 15408 ft 268 kts 99°
2026-05-03 21:14 34.74992 -88.24139 14861 ft 268 kts 99°
2026-05-03 21:14 34.74640 -88.21933 14310 ft 268 kts 99°
2026-05-03 21:15 34.74285 -88.19712 13755 ft 267 kts 99°
2026-05-03 21:15 34.73931 -88.17502 13200 ft 265 kts 99°
2026-05-03 21:15 34.73582 -88.15329 12651 ft 264 kts 99°
2026-05-03 21:15 34.73232 -88.13155 12099 ft 262 kts 99°
2026-05-03 21:16 34.72880 -88.10980 11544 ft 260 kts 99°
2026-05-03 21:16 34.72533 -88.08842 10993 ft 258 kts 99°
2026-05-03 21:16 34.72190 -88.06716 10441 ft 256 kts 99°
2026-05-03 21:16 34.71852 -88.04614 9886 ft 253 kts 99°
2026-05-03 21:17 34.71519 -88.02550 9342 ft 251 kts 98°
2026-05-03 21:17 34.71294 -88.01180 8974 ft 249 kts 98°
2026-05-03 21:17 34.70858 -87.98455 8238 ft 246 kts 99°
2026-05-03 21:17 34.70533 -87.96428 7681 ft 244 kts 99°
2026-05-03 21:18 34.70202 -87.94413 7124 ft 242 kts 99°
2026-05-03 21:18 34.69880 -87.92426 6575 ft 240 kts 99°
2026-05-03 21:18 34.69561 -87.90449 6024 ft 238 kts 99°
2026-05-03 21:18 34.69246 -87.88514 5643 ft 234 kts 99°
2026-05-03 21:19 34.68930 -87.86549 5398 ft 241 kts 100°
2026-05-03 21:19 34.68597 -87.84528 5150 ft 246 kts 100°
2026-05-03 21:19 34.68263 -87.82485 4903 ft 249 kts 100°
2026-05-03 21:19 34.67923 -87.80422 4656 ft 251 kts 100°
2026-05-03 21:20 34.67578 -87.78317 4404 ft 252 kts 100°
2026-05-03 21:20 34.67238 -87.76244 4157 ft 252 kts 100°
2026-05-03 21:20 34.66896 -87.74164 3908 ft 252 kts 100°
2026-05-03 21:20 34.66552 -87.72076 3658 ft 251 kts 100°
2026-05-03 21:21 34.66497 -87.69994 3415 ft 248 kts 72°
2026-05-03 21:21 34.67136 -87.68146 3170 ft 230 kts 55°
2026-05-03 21:21 34.68175 -87.66763 2922 ft 215 kts 37°
2026-05-03 21:21 34.69327 -87.65674 2666 ft 207 kts 33°
2026-05-03 21:22 34.70420 -87.64511 2191 ft 215 kts 55°
2026-05-03 21:22 34.70865 -87.62762 1735 ft 219 kts 79°
2026-05-03 21:22 34.70921 -87.60953 1579 ft 204 kts 89°
2026-05-03 21:22 34.70912 -87.59338 1592 ft 163 kts 88°
2026-05-03 21:23 34.71235 -87.58238 1413 ft 124 kts 42°
2026-05-03 21:23 34.71992 -87.57617 1213 ft 127 kts 22°
2026-05-03 21:23 34.72776 -87.57242 1151 ft 115 kts
2026-05-03 21:23 34.73456 -87.57552 1091 ft 109 kts 292°
2026-05-03 21:24 34.73684 -87.58408 886 ft 103 kts 288°
2026-05-03 21:24 34.73949 -87.59149 704 ft 98 kts 294°
2026-05-03 21:24 34.74215 -87.59847 542 ft 84 kts 294°
2026-05-03 21:24 34.74404 -87.60364 541 ft 46 kts 294°
2026-05-03 21:25 34.74522 -87.60679 539 ft 25 kts 291°
2026-05-03 21:25 34.74495 -87.60828 539 ft 0 kts 247°
2026-05-03 21:28 34.74493 -87.60834 538 ft 4 kts 249°
2026-05-03 21:29 34.74480 -87.60915 539 ft 13 kts 271°
2026-05-03 21:29 34.74490 -87.61035 539 ft 14 kts 276°
2026-05-03 21:29 34.74503 -87.61163 542 ft 17 kts 276°
2026-05-03 21:29 34.74519 -87.61358 541 ft 26 kts 278°
2026-05-03 21:30 34.74542 -87.61575 540 ft 25 kts 275°
2026-05-03 21:30 34.74544 -87.61760 538 ft 12 kts 268°
2026-05-03 21:30 34.74510 -87.61831 535 ft 0 kts 182°